FENGYUN 1C DEB, 30170

Orbit data source: Space-Track

FENGYUN 1C DEB, 30170 is space debris in SSO originally from a launch on Mon, 10 May 1999 UTC launched from the Taiyaun Space Center, China (TSC). Fengyun 1C debris stems from the Chinese weather satellite Fengyun-1C, which was intentionally destroyed by a Chinese anti-satellite missile in 2007. This event dramatically increased the amount of space debris, with thousands of trackable fragments posing hazards to satellites and human spaceflight. The Fengyun 1C debris cloud has become a focal point in discussions about space sustainability and the need for international regulations to prevent the creation of new debris.

Loading next visibility...
Identifier
30170, 1999-025UB
Orbit
SSO
Country
Flag of CNCN / PRC
Related business
Manufacturer
Unknown
Mission
Spacecraft
Bus & Motor
Unknown
Mass
Unknown
Launch date (UTC)
1999-05-10 (26 years ago)
Launch vehicle
Unknown
Launch site
Taiyaun Space Center, China (TSC)
Object type
Payload
Rocket body
Debris
Shape & HBR
Unknown shape, 0.1 m
Radar Cross Section
Small (<0.1 m²)

Expand to show TLE details & history
Last TLE update: 11 hours ago

TLE from 11 hours ago
0 FENGYUN 1C DEB
1 30170U 99025UB  25295.48942763  .00001174  00000-0  80262-3 0  9996
2 30170  98.8409 284.1940 0077786  57.3837  67.7501 14.00178252956980
Epoch: 2025-10-22T11:44Z
TLE epoch observation values (Epoch: 2025-10-22T11:44:46.547Z)
Latitude
53.21051°
Longitude
-91.22158°
Altitude
880.787 km
Speed
7.428 km/s
True Right ascension
07h 44m 32s
True Declination
53° 02' 54"
Sunlit
Object was in daylight at epoch
Visualization orbit readout
Latitude
Unknown
Longitude
Unknown
Altitude
Unknown
Speed
Unknown
Apparent Right ascension
Unknown
Apparent Declination
Unknown
Sunlit
N/A
Visualization observer readout
Local Sidereal Time
17:45:38
Azimuth
Unknown
Elevation
Unknown
Doppler factor
Unknown
Orbital elements
Apogee altitude
946.908 km
Perigee altitude
833.83 km
Semi-major axis
7,268.506 km
Eccentricity
0.00778
Inclination
98.8409°
RAAN
284.194°
Arg. of periapsis
57.3837°
True anomaly
68.57811°
Mean anomaly
67.7501°
Eccentric anomaly
68.1638°
Mean motion
3.50248 °/min
Orbital period
102.78 mins
BSTAR
0.00080262
Loading maneuver chart data...
Computing Atmospheric mass density...

Documentation

Showing up to 5 results
|